{"data":{"norad_id":55774,"intl_designator":"2023-028AK","name":"STARLINK-5812","alt_names":[],"object_type":"PAYLOAD","status":"ACTIVE","operator":null,"country":"US","launch_date":"2023-03-03","launch_site_code":"AFWTR","launch_vehicle":null,"mission":null,"orbit_class":"UNKNOWN","rcs_meters":null,"size_class":null,"mass_kg":null,"dimensions":null,"purposes":["comms"],"wikipedia_slug":null,"has_3d_model":false,"image_url":null,"decayed_at":null,"tle_current":{"epoch":"2026-05-25T03:01:42.683808Z","epoch_age_seconds":61239,"freshness":"FRESH","line1":"1 55774U 23028AK  26145.12618847  .00000675  00000+0  64357-4 0  9994","line2":"2 55774  70.0004  31.6912 0002644 269.4132  90.6724 14.98333497177987","mean_motion":14.98333497,"eccentricity":0.0002644,"inclination_deg":70.0004,"raan_deg":31.6912,"arg_perigee_deg":269.4132,"mean_anomaly_deg":90.6724,"bstar":6.4357e-5,"rev_number":17798,"period_min":96.106774819037,"perigee_km":570.20744864032,"apogee_km":573.88270492252,"semimajor_km":6950.1820767814,"source":"CELESTRAK","updated_at":"2026-05-25T13:38:17.884528Z"}}}